Volver al catálogo

DIADEME 2

ActivoCienciaLEO
NORAD 2680·PAYLOAD·🇫🇷 France

Lanzado Feb 15, 1967 desde Hammaguir Space Track Range

Loading…

Próximos Pases (próximas 24 horas)

TLE

ActualizadoSource: Space-Track

Época: Sep 14, 2026, 18:04 UTC

1 02680U 67014A   26257.75302917  .00000835  00000-0  35674-3 0  9994
2 02680  39.4399  59.2259 0700679 194.8364 163.0801 13.42204140888005

Sigue DIADEME 2 en tiempo real con AllMySat

Download on the App Store